{"data":{"norad_id":2872,"intl_designator":"1967-053F","name":"SURCAL 159","alt_names":[],"object_type":"PAYLOAD","status":"ACTIVE","operator":null,"country":"US","launch_date":"1967-05-31","launch_site_code":"AFWTR","launch_vehicle":null,"mission":null,"orbit_class":"UNKNOWN","rcs_meters":0.321,"size_class":null,"mass_kg":null,"dimensions":null,"purposes":[],"wikipedia_slug":null,"has_3d_model":false,"image_url":null,"decayed_at":null,"tle_current":{"epoch":"2026-09-20T03:18:10.660032Z","epoch_age_seconds":42398,"freshness":"FRESH","line1":"1 02872U 67053F   26263.13762338  .00000030  00000+0  57054-4 0  9999","line2":"2 02872  69.9743 156.3658 0007837 331.9967  28.0718 13.99620997 23495","mean_motion":13.99620997,"eccentricity":0.0007837,"inclination_deg":69.9743,"raan_deg":156.3658,"arg_perigee_deg":331.9967,"mean_anomaly_deg":28.0718,"bstar":5.7054e-5,"rev_number":2349,"period_min":102.88499551568,"perigee_km":889.40781583861,"apogee_km":900.80789982877,"semimajor_km":7273.2448578337,"source":"CELESTRAK","updated_at":"2026-09-20T09:00:13.501446Z"}}}